• In Österreich
  • Länderverzeichnis
  • Für 7 Tage
  • Wassertemperatur
  • Satellitenkarten
  • Wetterkarte
  • News
  • Widgets
  • user-avatar
    Anmelden

    Stündliche Wetter Mutare

    Heute, 22 Oktober, Sonntag

    Zeit Temperatur Niederschläge Wind Luftdruck Luftfeuchtigkeit
    00:00 +19°C° 0 mm 2 m/S 658 mmHg 83%
    01:00 +19°C° 0 mm 2 m/S 657 mmHg 85%
    02:00 +19°C° 0 mm 1 m/S 657 mmHg 88%
    03:00 +19°C° 0 mm 1 m/S 657 mmHg 88%
    04:00 +19°C° 0 mm 1 m/S 657 mmHg 87%
    05:00 +18°C° 0 mm 1 m/S 657 mmHg 86%
    06:00 +19°C° 0 mm 2 m/S 658 mmHg 77%
    07:00 +20°C° 0 mm 2 m/S 659 mmHg 69%
    08:00 +24°C° 0 mm 2 m/S 660 mmHg 56%
    09:00 +26°C° 0 mm 2 m/S 660 mmHg 49%
    10:00 +28°C° 0 mm 3 m/S 660 mmHg 41%
    11:00 +30°C° 0 mm 3 m/S 660 mmHg 33%
    12:00 +30°C° 0 mm 3 m/S 659 mmHg 31%
    13:00 +32°C° 0 mm 4 m/S 659 mmHg 29%
    14:00 +32°C° 0 mm 4 m/S 658 mmHg 28%
    15:00 +30°C° 0 mm 4 m/S 658 mmHg 32%
    16:00 +29°C° 0 mm 4 m/S 657 mmHg 35%
    17:00 +28°C° 0 mm 4 m/S 657 mmHg 39%
    18:00 +26°C° 0 mm 3 m/S 657 mmHg 47%
    19:00 +24°C° 0 mm 3 m/S 657 mmHg 55%
    20:00 +21°C° 0 mm 2 m/S 657 mmHg 62%
    21:00 +20°C° 0 mm 2 m/S 657 mmHg 67%
    22:00 +21°C° 0 mm 1 m/S 657 mmHg 72%
    23:00 +20°C° 0 mm 1 m/S 657 mmHg 77%

    Morgen, 23 Oktober, Montag

    Zeit Temperatur Niederschläge Wind Luftdruck Luftfeuchtigkeit
    00:00 +19°C° 0 mm 1 m/S 656 mmHg 80%
    01:00 +19°C° 0 mm 1 m/S 656 mmHg 83%
    02:00 +18°C° 0 mm 1 m/S 655 mmHg 86%
    03:00 +18°C° 0 mm 1 m/S 655 mmHg 86%
    04:00 +16°C° 0 mm 1 m/S 655 mmHg 86%
    05:00 +16°C° 0 mm 1 m/S 655 mmHg 86%
    06:00 +20°C° 0 mm 1 m/S 656 mmHg 68%
    07:00 +24°C° 0 mm 1 m/S 657 mmHg 51%
    08:00 +27°C° 0 mm 2 m/S 658 mmHg 33%
    09:00 +29°C° 0 mm 2 m/S 658 mmHg 27%
    10:00 +30°C° 0 mm 3 m/S 658 mmHg 22%
    11:00 +33°C° 0 mm 4 m/S 658 mmHg 16%
    12:00 +34°C° 0 mm 4 m/S 658 mmHg 15%
    13:00 +34°C° 0 mm 4 m/S 657 mmHg 15%
    14:00 +34°C° 0 mm 4 m/S 656 mmHg 14%
    15:00 +33°C° 0 mm 4 m/S 656 mmHg 16%
    16:00 +32°C° 0 mm 4 m/S 655 mmHg 18%
    17:00 +30°C° 0 mm 4 m/S 655 mmHg 20%
    18:00 +28°C° 0 mm 3 m/S 655 mmHg 26%
    19:00 +26°C° 0 mm 3 m/S 655 mmHg 32%
    20:00 +23°C° 0 mm 2 m/S 655 mmHg 38%
    21:00 +21°C° 0 mm 2 m/S 655 mmHg 45%
    22:00 +21°C° 0 mm 1 m/S 655 mmHg 51%
    23:00 +20°C° 0 mm 1 m/S 655 mmHg 58%

    übermorgen, 24 Oktober, Dienstag

    Zeit Temperatur Niederschläge Wind Luftdruck Luftfeuchtigkeit
    00:00 +20°C° 0 mm 1 m/S 655 mmHg 63%
    01:00 +19°C° 0 mm 1 m/S 654 mmHg 68%
    02:00 +18°C° 0 mm 1 m/S 654 mmHg 73%
    03:00 +18°C° 0 mm 1 m/S 654 mmHg 74%
    04:00 +18°C° 0 mm 1 m/S 653 mmHg 76%
    05:00 +16°C° 0 mm 1 m/S 653 mmHg 77%
    06:00 +21°C° 0 mm 1 m/S 655 mmHg 63%
    07:00 +24°C° 0 mm 1 m/S 656 mmHg 49%
    08:00 +27°C° 0 mm 1 m/S 657 mmHg 35%
    09:00 +30°C° 0 mm 1 m/S 657 mmHg 30%
    10:00 +32°C° 0 mm 2 m/S 657 mmHg 24%
    11:00 +36°C° 0 mm 2 m/S 658 mmHg 18%
    12:00 +36°C° 0 mm 2 m/S 657 mmHg 17%
    13:00 +36°C° 0 mm 2 m/S 656 mmHg 16%
    14:00 +37°C° 0 mm 2 m/S 655 mmHg 15%
    15:00 +35°C° 0 mm 3 m/S 655 mmHg 16%
    16:00 +34°C° 0 mm 3 m/S 654 mmHg 17%
    17:00 +33°C° 0 mm 3 m/S 654 mmHg 18%
    18:00 +30°C° 0 mm 3 m/S 654 mmHg 22%
    19:00 +27°C° 0 mm 2 m/S 654 mmHg 27%
    20:00 +25°C° 0 mm 2 m/S 654 mmHg 31%
    21:00 +24°C° 0 mm 2 m/S 654 mmHg 36%
    22:00 +23°C° 0 mm 2 m/S 654 mmHg 41%
    23:00 +22°C° 0 mm 1 m/S 654 mmHg 45%

    25 Oktober, Mittwoch

    Zeit Temperatur Niederschläge Wind Luftdruck Luftfeuchtigkeit
    00:00 +22°C° 0 mm 1 m/S 654 mmHg 49%
    01:00 +21°C° 0 mm 1 m/S 653 mmHg 53%
    02:00 +20°C° 0 mm 1 m/S 653 mmHg 56%
    03:00 +20°C° 0 mm 1 m/S 653 mmHg 57%
    04:00 +20°C° 0 mm 1 m/S 653 mmHg 58%
    05:00 +19°C° 0 mm 1 m/S 653 mmHg 59%
    06:00 +23°C° 0 mm 1 m/S 654 mmHg 49%
    07:00 +26°C° 0 mm 1 m/S 655 mmHg 39%
    08:00 +29°C° 0 mm 1 m/S 656 mmHg 29%
    09:00 +32°C° 0 mm 1 m/S 657 mmHg 24%
    10:00 +35°C° 0 mm 1 m/S 657 mmHg 20%
    11:00 +40°C° 0 mm 1 m/S 657 mmHg 15%
    12:00 +39°C° 0 mm 1 m/S 656 mmHg 15%
    13:00 +39°C° 0 mm 2 m/S 655 mmHg 14%
    14:00 +38°C° 0 mm 2 m/S 654 mmHg 14%
    15:00 +37°C° 0 mm 2 m/S 653 mmHg 16%
    16:00 +36°C° 0 mm 2 m/S 653 mmHg 17%
    17:00 +34°C° 0 mm 2 m/S 653 mmHg 19%
    18:00 +31°C° 0 mm 2 m/S 653 mmHg 23%
    19:00 +29°C° 0 mm 2 m/S 653 mmHg 27%
    20:00 +27°C° 0 mm 2 m/S 653 mmHg 31%
    21:00 +26°C° 0 mm 2 m/S 653 mmHg 36%
    22:00 +25°C° 0 mm 1 m/S 653 mmHg 41%
    23:00 +24°C° 0 mm 1 m/S 653 mmHg 46%

    26 Oktober, Donnerstag

    Zeit Temperatur Niederschläge Wind Luftdruck Luftfeuchtigkeit
    00:00 +23°C° 0 mm 1 m/S 652 mmHg 49%
    01:00 +23°C° 0 mm 1 m/S 651 mmHg 52%
    02:00 +22°C° 0 mm 1 m/S 651 mmHg 55%
    03:00 +22°C° 0 mm 1 m/S 651 mmHg 55%
    04:00 +21°C° 0 mm 1 m/S 651 mmHg 55%
    05:00 +21°C° 0 mm 1 m/S 651 mmHg 56%
    06:00 +25°C° 0 mm 1 m/S 652 mmHg 45%
    07:00 +28°C° 0 mm 1 m/S 654 mmHg 34%
    08:00 +32°C° 0 mm 1 m/S 655 mmHg 24%
    09:00 +34°C° 0 mm 1 m/S 655 mmHg 20%
    10:00 +37°C° 0 mm 1 m/S 655 mmHg 17%
    11:00 +41°C° 0 mm 1 m/S 655 mmHg 13%
    12:00 +40°C° 0 mm 1 m/S 654 mmHg 13%
    13:00 +39°C° 0 mm 1 m/S 653 mmHg 13%
    14:00 +39°C° 0 mm 1 m/S 652 mmHg 13%
    15:00 +36°C° 0 mm 1 m/S 652 mmHg 15%
    16:00 +35°C° 0 mm 1 m/S 651 mmHg 16%
    17:00 +34°C° 0 mm 1 m/S 651 mmHg 18%
    18:00 +32°C° 0 mm 1 m/S 651 mmHg 20%
    19:00 +31°C° 0 mm 1 m/S 651 mmHg 23%
    20:00 +29°C° 0 mm 2 m/S 651 mmHg 26%
    21:00 +28°C° 0 mm 1 m/S 651 mmHg 29%
    22:00 +27°C° 0 mm 1 m/S 650 mmHg 32%
    23:00 +26°C° 0 mm 1 m/S 650 mmHg 35%

    27 Oktober, Freitag

    Zeit Temperatur Niederschläge Wind Luftdruck Luftfeuchtigkeit
    00:00 +26°C° 0 mm 1 m/S 650 mmHg 36%
    01:00 +25°C° 0 mm 1 m/S 649 mmHg 36%
    02:00 +25°C° 0 mm 1 m/S 649 mmHg 37%
    03:00 +25°C° 0 mm 1 m/S 649 mmHg 38%
    04:00 +24°C° 0 mm 1 m/S 649 mmHg 38%
    05:00 +24°C° 0 mm 1 m/S 649 mmHg 39%
    06:00 +27°C° 0 mm 2 m/S 650 mmHg 33%
    07:00 +31°C° 0 mm 2 m/S 651 mmHg 27%
    08:00 +35°C° 0 mm 2 m/S 652 mmHg 21%
    09:00 +37°C° 0 mm 2 m/S 652 mmHg 18%
    10:00 +39°C° 0 mm 2 m/S 652 mmHg 15%
    11:00 +42°C° 0 mm 2 m/S 652 mmHg 13%
    12:00 +40°C° 0 mm 2 m/S 651 mmHg 15%
    13:00 +37°C° 0 mm 1 m/S 650 mmHg 17%
    14:00 +35°C° 0 mm 1 m/S 649 mmHg 19%
    15:00 +35°C° 0 mm 1 m/S 650 mmHg 20%
    16:00 +34°C° 0 mm 1 m/S 650 mmHg 21%
    17:00 +34°C° 0 mm 1 m/S 650 mmHg 22%
    18:00 +32°C° 0,1 mm 2 m/S 650 mmHg 28%
    19:00 +30°C° 0,1 mm 2 m/S 651 mmHg 33%
    20:00 +28°C° 0,1 mm 2 m/S 651 mmHg 39%
    21:00 +26°C° 0 mm 2 m/S 651 mmHg 45%
    22:00 +25°C° 0 mm 2 m/S 651 mmHg 52%
    23:00 +24°C° 0 mm 2 m/S 651 mmHg 58%
    Mehr zeigen